Regional Weather Roundup
Issued by NWS

Home | Current Version | Previous Version | Text Only | Print | Product List | Glossary Off
Versions: 1 2 3 4 5 6 7 8 9 10 11 12 13 14 15 16 17 18 19 20 21 22 23 24 25 26 27 28 29 30 31 32 33 34 35 36 37 38 39 40 41 42 43 44 45 46 47 48 49 50

417
ASUS43 KMPX 241010
RWRMN
WEATHER ROUNDUP FOR MINNESOTA
NATIONAL WEATHER SERVICE TWIN CITIES/CHANHASSEN MN
500 AM CDT TUE APR 24 2018


NOTE: "FAIR" INDICATES FEW OR NO CLOUDS BELOW 12,000 FEET WITH NO
SIGNIFICANT WEATHER AND/OR OBSTRUCTIONS TO VISIBILITY. N/A MEANS
CURRENT SKY AND/OR WEATHER CONDITIONS ARE NOT AVAILABLE.

MNZ060>063-068>070-241100-
   Twin Cities Metro

CITY           SKY/WX    TMP DP  RH WIND       PRES   REMARKS
TWIN CITIES    FAIR      46  40  79 CALM      30.12S
ST PAUL        FAIR      42  38  85 CALM      30.12F
CRYSTAL        FAIR      39  34  82 CALM      30.11S
BLAINE         FAIR      41  37  87 CALM      30.11F
LAKEVILLE      FAIR      37  37 100 CALM      30.11F
EDEN PRAIRIE   FAIR      45  39  79 SW3       30.11S
SOUTH ST PAUL  FAIR      43  36  76 CALM      30.11F
LAKE ELMO      FAIR      37  34  87 CALM      30.12S
$$
MNZ001>005-007-008-013>017-022>024-027-028-241100-
   Northwest Minnesota

CITY           SKY/WX    TMP DP  RH WIND       PRES   REMARKS
BEMIDJI        CLOUDY    42  30  61 N9        30.21R
HALLOCK        FAIR      37  32  81 N8        30.32R
ROSEAU         FAIR      39  34  81 N8        30.30R
WARROAD        MOCLDY    39  32  75 N6        30.29R
THIEF RVR FALL CLOUDY    44  32  62 N14       30.29R
CROOKSTON      FAIR      43  36  75 N13       30.30R
FOSSTON        DRIZZLE   41  34  75 N14       30.26R
DETROIT LAKES  MOCLDY    43  36  75 NW9       30.23R
MOORHEAD       RAIN      43  37  81 N20       30.26R
PARK RAPIDS    CLOUDY    43  32  65 N6        30.17S
MAHNOMEN       CLOUDY    43  34  70 N14       30.24R
$$
MNZ006-009>011-018-025>026-241100-
   North Central Minnesota

CITY           SKY/WX    TMP DP  RH WIND       PRES   REMARKS
BAUDETTE       MOCLDY    39  31  72 N10       30.25R
FLAG ISLAND    FAIR      36  28  75 N13       30.27R
INTL FALLS     CLOUDY    39  30  70 N9        30.21R
WASKISH        MOCLDY    43  32  65 N9        30.22R
BIG FORK       CLOUDY    36  27  69 N3        30.18R
LONGVILLE      FAIR      34  28  80 CALM      30.16F
GRAND RAPIDS   FAIR      37  29  72 CALM      30.18S
CRANE LAKE     FAIR      27  27 100 CALM      30.21S
ORR            FAIR      30  27  86 NW3       30.16R
COOK           FAIR      28  27  93 CALM      30.17S
WALKER         CLOUDY    37  28  72 CALM      30.18S
$$
MNZ012-019>021-037-241100-
   Northeast Minnesota

CITY           SKY/WX    TMP DP  RH WIND       PRES   REMARKS
DULUTH         FAIR      42  28  57 N5        30.14S
ELY            FAIR      28  25  86 CALM      30.16S
HIBBING        FAIR      30  26  85 CALM      30.16R
EVELETH        FAIR      35  27  74 CALM      30.16S
DULUTH HARBOR  FAIR      45  30  57 N7        30.15S
TWO HARBORS    FAIR      43  30  61 N3        30.13S
SILVER BAY     FAIR      36  28  75 CALM      30.14R
GRAND MARAIS     N/A     42  29  59 CALM      30.16R
G MARAIS ARPRT FAIR      37  25  60 N12       30.13S
$$
MNZ029>031-032-039>041-046>048-054>057-064-241100-
   West Central Minnesota

CITY           SKY/WX    TMP DP  RH WIND       PRES   REMARKS
FERGUS FALLS   MOCLDY    46  36  66 N9        30.17R
WHEATON        CLOUDY    46  39  76 NW8       30.21R
MORRIS         MOCLDY    43  37  81 N8        30.16S
ALEXANDRIA     CLOUDY    47  33  58 N7        30.17R
ELBOW LAKE     CLOUDY    45  36  71 N5        30.18R
WADENA         MOCLDY    39  32  75 N5        30.17S
GLENWOOD       FAIR      43  34  70 N8        30.15F
APPLETON       CLOUDY    45  37  76 N12       30.15S
BENSON         PTCLDY    37  34  87 N7        30.17S
ORTONVILLE     CLOUDY    46  39  76 N9        30.15S
MADISON        CLOUDY    46  43  87 N8        30.13F
WILLMAR        FAIR      43  36  75 N6        30.16S
$$
MNZ033>034-036-042>043-049>051-058-059-241100-
   Central Minnesota

CITY           SKY/WX    TMP DP  RH WIND       PRES   REMARKS
ST CLOUD       FAIR      40  35  83 CALM      30.12F
SAUK CENTRE    FAIR      40  32  73 N3        30.16S
PAYNESVILLE    FAIR      38  35  90 CALM      30.15S
AITKIN         FAIR      27  25  93 CALM      30.15S
PINE RIVER     MOCLDY    34  27  75 CALM      30.20S
BRAINERD       FAIR      40  28  62 CALM      30.16S
STAPLES        FAIR      37  30  75 N3        30.17S
LONG PRAIRIE   FAIR      41  32  70 NW5       30.16S
LITTLE FALLS   FAIR      45  27  49 CALM      30.16R
LITCHFIELD     FAIR      46  37  71 NW3       30.14S
BUFFALO        FAIR      39  35  87 CALM      30.13S
MAPLE LAKE     FAIR      43  36  78 NW3       30.14S
HUTCHINSON     FAIR      40  39  97 CALM      30.14S
$$
MNZ037-044-045-052-053-241100-
   East Central Minnesota

CITY           SKY/WX    TMP DP  RH WIND       PRES   REMARKS
PRINCETON      FAIR      37  34  87 N3        30.12F
MORA           FAIR      37  32  81 CALM      30.14S
CAMBRIDGE      FAIR      39  30  70 CALM      30.13S
RUSH CITY      FAIR      35  33  91 CALM      30.12S
MOOSE LAKE     FAIR      32  30  93 NE5       30.12S WCI  27
HINCKLEY       CLOUDY    43  32  65 N6        30.13S
CLOQUET        FAIR      34  27  75 NW3       30.15R
MCGREGOR       FAIR      32  28  86 N5        30.16S WCI  27
$$
MNZ071>073-080-081-089-090-097-098-241100-
   Southwest Minnesota

CITY           SKY/WX    TMP DP  RH WIND       PRES   REMARKS
MONTEVIDEO     CLOUDY    43  37  81 NE8       30.15S
GRANITE FALLS  CLEAR     41  40  96 W3        30.15F
CANBY          CLOUDY    44  39  85 NW8       30.17R
MARSHALL       PTCLDY    39  36  89 VRB6      30.14F
REDWOOD FALLS  CLEAR     45  40  82 NW5       30.13F
OLIVIA         CLEAR     43  37  81 NW3       30.13S
PIPESTONE      MOCLDY   N/A N/A N/A CALM      30.14S
WINDOM         CLEAR     39  25  56 CALM      30.13F
WORTHINGTON    CLEAR     40  35  83 CALM      30.14F
JACKSON        CLEAR     37  34  87 CALM      30.14S
TRACY          CLEAR     43  38  81 SW8       30.12F
SLAYTON        PTCLDY    38  33  82 W3        30.14F
$$
MNZ065>067-074>077-082>085-091>093-241100-
   South Central Minnesota

CITY           SKY/WX    TMP DP  RH WIND       PRES   REMARKS
NEW ULM        CLEAR     43  37  81 NW3       30.13S
ST JAMES       CLOUDY    43  37  81 CALM      30.14S
FAIRMONT       MOCLDY    40  35  83 W6        30.13F
GLENCOE        FAIR      42  42 100 CALM      30.12S
FARIBAULT      FAIR      37  36  93 CALM      30.13S
OWATONNA       FAIR      39  37  93 CALM      30.13F
WASECA         FAIR      39  36  87 CALM      30.14S
ALBERT LEA     FAIR      45  37  76 CALM      30.12F
$$
MNZ078>079-086>088-094>096-241100-
   Southeast Minnesota

CITY           SKY/WX    TMP DP  RH WIND       PRES   REMARKS
ROCHESTER      CLOUDY    45  38  76 CALM      30.12F
RED WING       FAIR      37  28  70 CALM      30.11S
STANTON        FAIR      36  33  90 S3        30.11S
DODGE CENTER   FAIR      39  36  87 NW3       30.12F
WINONA         FAIR      37  34  87 CALM      30.11S
AUSTIN         FAIR      39  36  87 SE3       30.11F
PRESTON        CLOUDY    45  32  61 NW5       30.12S
$$
ABBREVIATIONS USED IN REMARKS
   TC - TEMPERATURES IN CELSIUS
  WCI - WIND CHILL INDEX
   HX - HEAT INDEX
  VSB - VISIBILITY
$$




USA.gov is the U.S. government's official web portal to all federal, state and local government web resources and services.